Starlink 5138

decayed
NORAD ID: 54078 Int'l Des: 2022-136 Owner: SPXS Country: US Constellation: starlink
LEOCIRCULAR
Group

About Starlink 5138

Description loading...

Altitude History

Altitude vs Time

uPlot chart will show altitude changes over time

Two-Line Element Set

1 54078U 22136AD 25327.67897032 .09541434 12462-4 39915-3 0 9998
2 54078 53.1982 52.6087 0002251 283.1043 76.9756 16.43810513171497
Epoch: Nov 23, 2025 • Age: 656 hours

Current Status

Position data unavailable
Launch Date Oct 20, 2022
Age 3.1 years
Decay Date Nov 23, 2025
Type internet

Technical Details

Classification Payload
Mass 305.00 kg
Dry Mass 290.00 kg
Total Mass 305.00 kg
Length 0.20 m
Diameter 2.80 m
Span 9.00 m
Shape Box + pan
Manufacturer SPXS
Bus Type Starlink
Phase Status Reentered
Owner/State SPXS/US

Large Constellations

Loading constellations...